Regional Weather Roundup
Issued by NWS

Home | Current Version | Previous Version | Graphics & Text | Print | Product List | Glossary On
Versions: 1 2 3 4 5 6 7 8 9 10 11 12 13 14 15 16 17 18 19 20 21 22 23 24 25 26 27 28 29 30 31 32 33 34 35 36 37 38 39 40 41 42 43 44 45 46 47 48 49 50
000
ASUS43 KMPX 191410
RWRMN
WEATHER ROUNDUP FOR MINNESOTA
NATIONAL WEATHER SERVICE TWIN CITIES/CHANHASSEN MN
900 AM CDT FRI SEP 19 2014


NOTE: "FAIR" INDICATES FEW OR NO CLOUDS BELOW 12,000 FEET WITH NO
SIGNIFICANT WEATHER AND/OR OBSTRUCTIONS TO VISIBILITY. N/A MEANS
CURRENT SKY AND/OR WEATHER CONDITIONS ARE NOT AVAILABLE.

MNZ060>063-068>070-191500-
   Twin Cities Metro

CITY           SKY/WX    TMP DP  RH WIND       PRES   REMARKS
TWIN CITIES    PTSUNNY   59  51  75 SE9       29.90F
ST PAUL        CLOUDY    59  51  75 SE14      29.91F
CRYSTAL        PTSUNNY   64  53  67 S16G23    29.85F
LAKEVILLE      PTSUNNY   61  54  77 S10       29.89F
EDEN PRAIRIE   PTSUNNY   63  55  75 S10       29.87F
SOUTH ST PAUL  CLOUDY    60  50  70 S8G18     29.91F
LAKE ELMO      CLOUDY    59  52  77 S12       29.92F
$$
MNZ001>005-007-008-013>017-022>024-027-028-191500-
   Northwest Minnesota

CITY           SKY/WX    TMP DP  RH WIND       PRES   REMARKS
BEMIDJI        RAIN      59  55  84 S14G22    29.65F
HALLOCK        DRIZZLE   63  59  88 S8        29.51F
ROSEAU         CLOUDY    63  57  82 S12       29.55R
WARROAD        CLOUDY    63  59  88 S7        29.56S
THIEF RVR FALL CLOUDY    63  57  82 S23       29.56S
CROOKSTON      LGT RAIN  63  59  88 S21       29.58R
FOSSTON        CLOUDY    59  55  88 S15G21    29.62F
DETROIT LAKES  CLOUDY    61  55  82 S13G21    29.70R
MOORHEAD       CLOUDY    63  61  94 S15G23    29.64F
PARK RAPIDS    LGT RAIN  59  56  89 S16       29.67F
MAHNOMEN       CLOUDY    59  57  91 S16G22    29.64S
$$
MNZ006-009>011-018-025>026-191500-
   North Central Minnesota

CITY           SKY/WX    TMP DP  RH WIND       PRES   REMARKS
BAUDETTE       CLOUDY    62  56  80 S12       29.59F
FLAG ISLAND    LGT RAIN  59  57  94 S14       29.50S
INTL FALLS     CLOUDY    59  54  83 S9        29.63F
WASKISH        CLOUDY    63  55  77 S10G16    29.60F
BIG FORK       CLOUDY    61  54  77 S16G24    29.69F
LONGVILLE      LGT RAIN  59  55  88 S17       29.73F
GRAND RAPIDS   CLOUDY    57  52  82 S23G29    29.75F
CRANE LAKE     CLOUDY    57  54  88 S10G18    29.71F
ORR            CLOUDY    57  52  82 S12G18    29.68F
COOK           CLOUDY    59  54  82 S14G24    29.72F
WALKER         DRIZZLE   58  55  88 S9G17     29.69F
$$
MNZ012-019>021-037-191500-
   Northeast Minnesota

CITY           SKY/WX    TMP DP  RH WIND       PRES   REMARKS
DULUTH         CLOUDY    59  52  77 S20G28    29.83F
ELY            CLOUDY    57  52  82 S17G25    29.76F
HIBBING        CLOUDY    60  53  77 S12G21    29.76F
EVELETH        CLOUDY    57  52  82 S14G21    29.78F
DULUTH HARBOR  PTSUNNY   61  54  77 SW17      29.84F
TWO HARBORS    CLOUDY    54  48  82 S7        29.82F
SILVER BAY     CLOUDY    50  50 100 S5        29.82F
GRAND MARAIS     N/A     54  50  86 W5        29.84F
G MARAIS ARPRT CLOUDY    50  46  87 S9G18     29.85S FOG
$$
MNZ029>031-032-039>041-046>048-054>057-064-191500-
   West Central Minnesota

CITY           SKY/WX    TMP DP  RH WIND       PRES   REMARKS
FERGUS FALLS   CLOUDY    63  55  77 S13G18    29.72R
WHEATON        CLOUDY    61  57  88 S5        29.73R
MORRIS         CLOUDY    63  57  82 S18G24    29.70F
ALEXANDRIA     CLOUDY    60  57  89 S21       29.72F
ELBOW LAKE     CLOUDY    60  56  87 S18       29.70R
WADENA         DRIZZLE   59  55  88 S16G26    29.68F
GLENWOOD       CLOUDY    61  57  88 S16       29.76R
APPLETON       CLOUDY    64  57  77 S10G18    29.71F
BENSON         CLOUDY    63  57  82 S12       29.73F
ORTONVILLE     CLOUDY    63  57  82 S12       29.68F
MADISON        CLOUDY    68  61  77 S17G24    29.70F
WILLMAR        PTSUNNY   63  57  82 S12G20    29.78F
$$
MNZ033>034-036-042>043-049>051-058-059-191500-
   Central Minnesota

CITY           SKY/WX    TMP DP  RH WIND       PRES   REMARKS
ST CLOUD       CLOUDY    63  55  75 S13       29.82F
SAUK CENTRE    CLOUDY    59  56  91 S14       29.77F
PAYNESVILLE    CLOUDY    58  55  92 SE12      29.79F
AITKIN         CLOUDY    61  54  77 S13       29.77F
PINE RIVER     CLOUDY    59  55  88 S13G20    29.78F
BRAINERD       CLOUDY    58  54  86 S14G22    29.76F
STAPLES        LGT RAIN  57  55  94 SE15      29.71F
LONG PRAIRIE   CLOUDY    57  55  94 S10G16    29.78F
LITTLE FALLS   CLOUDY    59  54  82 SE12G17   29.77F
LITCHFIELD     CLOUDY    61  59  94 SE8       29.82F
BUFFALO        CLOUDY    61  55  78 S12G22    29.85F
MAPLE LAKE     CLOUDY    62  57  85 S8        29.84F
$$
MNZ037-044-045-052-053-191500-
   East Central Minnesota

CITY           SKY/WX    TMP DP  RH WIND       PRES   REMARKS
PRINCETON      CLOUDY    61  55  82 S14       29.85F
MORA           CLOUDY    55  52  88 S10       29.86F
CAMBRIDGE      CLOUDY    63  52  67 S10       29.84F
RUSH CITY      PTSUNNY   59  51  76 S14G21    29.86F
MOOSE LAKE     CLOUDY    59  52  77 S12G23    29.81F
HINCKLEY       CLOUDY    59  54  82 S15       29.86F
CLOQUET        CLOUDY    59  52  77 S15G26    29.82F
MCGREGOR       CLOUDY    59  54  82 S12G21    29.80F
$$
MNZ071>073-080-081-089-090-097-098-191500-
   Southwest Minnesota

CITY           SKY/WX    TMP DP  RH WIND       PRES   REMARKS
MONTEVIDEO     CLOUDY    64  59  82 S10G20    29.74F
GRANITE FALLS  CLOUDY    64  59  85 SE15G21   29.76F
CANBY          CLOUDY    65  60  85 S15G22    29.72F
MARSHALL       CLOUDY    64  57  77 S20G26    29.74F
REDWOOD FALLS  CLOUDY    63  58  83 S18G24    29.80F
OLIVIA         CLOUDY    63  55  77 S12G17    29.79F
PIPESTONE      CLOUDY    61  61 100 S17G23    29.79F FOG
WINDOM         CLOUDY    61  59  94 S15       29.84F FOG
WORTHINGTON    CLOUDY    61  59  94 S15       29.85F
JACKSON        CLOUDY    61  57  88 S14       29.87F
TRACY          CLOUDY    64  61  90 S21G30    29.77F FOG
SLAYTON        CLOUDY    61  60  99 S15G22    29.81F FOG
$$
MNZ065>067-074>077-082>085-091>093-191500-
   South Central Minnesota

CITY           SKY/WX    TMP DP  RH WIND       PRES   REMARKS
MANKATO        CLOUDY    61  52  72 S14G22    29.88F
NEW ULM        CLOUDY    61  57  88 S15       29.84F
ST JAMES       CLOUDY    63  57  82 S15G22    29.87F
FAIRMONT       CLOUDY    61  52  72 S12       29.89F
GLENCOE        CLOUDY    62  55  78 S10G18    29.85F
FARIBAULT      PTSUNNY   63  52  67 S14G23    29.91F
OWATONNA       PTSUNNY   61  52  72 S17G23    29.92S
WASECA         CLOUDY    59  48  67 S14G23    29.93S
ALBERT LEA     PTSUNNY   59  54  82 S12       29.94S
$$
MNZ078>079-086>088-094>096-191500-
   Southeast Minnesota

CITY           SKY/WX    TMP DP  RH WIND       PRES   REMARKS
ROCHESTER      MOSUNNY   58  50  75 S15G26    29.96F
RED WING       MOSUNNY   61  50  67 SE6       29.93F
STANTON        PTSUNNY   61  51  71 S9        29.92R
DODGE CENTER   MOSUNNY   63  54  72 S18G25    29.94F
WINONA         MOSUNNY   61  50  67 SE6       29.99F
AUSTIN         MOSUNNY   57  52  82 S10G16    29.96F
PRESTON        SUNNY     56  53  89 S13       29.99F
$$
ABBREVIATIONS USED IN REMARKS
   TC - TEMPERATURES IN CELSIUS
  WCI - WIND CHILL INDEX
   HX - HEAT INDEX
  VSB - VISIBILITY
$$


USA.gov is the U.S. government's official web portal to all federal, state and local government web resources and services.